Pine River, MN

6:58 AM CDT on June 24, 2017 (GMT -0500)
Pine River Regional

Weather History for KPWC - March, 2013

Change the Weather History Date:

Monday, March 18, 2013

  Actual Average Record
Temperature  
Mean Temperature 17 °F -  
Max Temperature 26 °F 37 °F 73 °F (2012)
Min Temperature 8 °F 16 °F 8 °F (2006)
Degree Days  
Heating Degree Days 48    
Moisture  
Dew Point 13 °F    
Average Humidity 81    
Maximum Humidity 93    
Minimum Humidity 68    
Precipitation  
Precipitation 0.02 in - - ()
Sea Level Pressure  
Sea Level Pressure 29.61 in    
Wind  
Wind Speed 13 mph (SW)    
Max Wind Speed 22 mph    
Max Gust Speed 28 mph    
Visibility 5 miles    
Events Snow    
Averages and records for this station are not official NWS values.
T = Trace of Precipitation, MM = Missing Value Source: NWS Daily Summary

Daily Weather History Graph

Daily Weather History Graph

Search for Another Location

Airport or City:

Trip Planner

Search our weather history database for the weather conditions in past years. The results will help you decide how hot, cold, wet, or windy it might be!

Date:

Astronomy

Mar. 18, 2013 Rise Set
Actual Time 7:23 AM CDT 7:27 PM CDT
Civil Twilight 6:53 AM CDT 7:58 PM CDT
Nautical Twilight 6:18 AM CDT 8:33 PM CDT
Astronomical Twilight 5:42 AM CDT 9:09 PM CDT
Moon 11:03 AM CDT (3/18) 1:48 AM CDT (3/18)
Length of Visible Light 13h 04m
Length of Day
12h 03m
Waxing Crescent, 41% of the Moon is Illuminated
Mar 18
Waxing Crescent
Mar 19
First Quarter
Mar 27
Full
Apr 2
Last Quarter
Apr 10
New

Hourly Weather History & Observations

Time (CDT) Temp. Windchill Dew Point Humidity Pressure Visibility Wind Dir Wind Speed Gust Speed Precip Events Conditions
12:12 AM 17.6 °F 2.2 °F 15.8 °F 93% 29.75 in 1.2 mi ESE 17.3 mph 25.3 mph N/A Snow Light Snow
12:52 AM 19.4 °F 5.5 °F 15.8 °F 86% 29.72 in 1.0 mi SE 15.0 mph 26.5 mph N/A Snow Light Snow
1:13 AM 19.4 °F 5.0 °F 15.8 °F 86% 29.72 in 0.8 mi SE 16.1 mph 20.7 mph N/A Snow Snow
1:32 AM 19.4 °F 7.2 °F 15.8 °F 86% 29.72 in 0.8 mi SE 11.5 mph - N/A Snow Snow
1:52 AM 19.4 °F 7.9 °F 15.8 °F 86% 29.72 in 0.8 mi SE 10.4 mph - N/A Snow Snow
2:12 AM 19.4 °F 8.6 °F 17.6 °F 93% 29.71 in 1.0 mi SE 9.2 mph - N/A Snow Light Snow
2:33 AM 19.4 °F 7.2 °F 17.6 °F 93% 29.69 in 1.8 mi SE 11.5 mph - N/A Snow Light Snow
2:52 AM 19.4 °F 6.6 °F 17.6 °F 93% 29.68 in 2.0 mi SE 12.7 mph - N/A Snow Light Snow
3:13 AM 19.4 °F 7.2 °F 17.6 °F 93% 29.67 in 2.0 mi SE 11.5 mph - 0.01 in Snow Light Snow
3:32 AM 19.4 °F 7.2 °F 17.6 °F 93% 29.65 in 1.5 mi SE 11.5 mph - 0.02 in Snow Light Snow
3:53 AM 19.4 °F 6.6 °F 17.6 °F 93% 29.64 in 1.5 mi SE 12.7 mph 17.3 mph N/A Snow Light Snow
4:13 AM 21.2 °F 8.3 °F 17.6 °F 86% 29.63 in 1.5 mi SE 13.8 mph 19.6 mph N/A Snow Light Snow
4:33 AM 21.2 °F 7.8 °F 17.6 °F 86% 29.61 in 1.0 mi SE 15.0 mph 19.6 mph N/A Snow Light Snow
4:52 AM 21.2 °F 7.3 °F 19.4 °F 93% 29.60 in 2.5 mi SE 16.1 mph 23.0 mph N/A Snow Light Snow
5:12 AM 21.2 °F 8.3 °F 19.4 °F 93% 29.58 in 4.0 mi SE 13.8 mph 20.7 mph N/A Snow Light Snow
5:33 AM 21.2 °F 8.3 °F 19.4 °F 93% 29.57 in 3.0 mi SE 13.8 mph - N/A Snow Light Snow
5:52 AM 23.0 °F 11.1 °F 19.4 °F 86% 29.56 in 5.0 mi SE 12.7 mph - N/A Snow Light Snow
6:13 AM 23.0 °F 11.1 °F 19.4 °F 86% 29.54 in 10.0 mi SE 12.7 mph 20.7 mph N/A   Overcast
6:32 AM 23.0 °F 11.7 °F 19.4 °F 86% 29.53 in 10.0 mi SE 11.5 mph 19.6 mph N/A   Overcast
6:52 AM 23.0 °F 10.6 °F 19.4 °F 86% 29.52 in 5.0 mi SE 13.8 mph 18.4 mph N/A Snow Light Snow
7:12 AM 24.8 °F 13.4 °F 21.2 °F 86% 29.51 in 5.0 mi SE 12.7 mph - N/A Snow Light Snow
7:32 AM 24.8 °F 12.9 °F 21.2 °F 86% 29.50 in 5.0 mi SE 13.8 mph - N/A   Overcast
7:52 AM 24.8 °F 11.9 °F 21.2 °F 86% 29.48 in 5.0 mi SE 16.1 mph 21.9 mph N/A   Overcast
8:11 AM 24.8 °F 11.9 °F 23.0 °F 93% 29.47 in 4.0 mi SE 16.1 mph 23.0 mph N/A   Overcast
8:31 AM 26.6 °F 14.3 °F 24.8 °F 93% 29.46 in 3.0 mi SSE 16.1 mph - N/A   Overcast
8:53 AM 26.6 °F 12.4 °F 24.8 °F 93% 29.46 in 4.0 mi South 21.9 mph 26.5 mph N/A   Overcast
9:13 AM 24.8 °F 11.5 °F 23.0 °F 93% 29.47 in 2.5 mi South 17.3 mph 27.6 mph N/A   Overcast
9:33 AM 24.8 °F 12.9 °F 21.2 °F 86% 29.48 in 4.0 mi SSW 13.8 mph 20.7 mph N/A   Overcast
9:52 AM 21.2 °F 8.3 °F 19.4 °F 93% 29.49 in 2.5 mi SSW 13.8 mph 25.3 mph N/A   Overcast
10:12 AM 21.2 °F 9.5 °F 17.6 °F 86% 29.50 in 3.0 mi SW 11.5 mph 17.3 mph N/A   Overcast
10:32 AM 19.4 °F 6.0 °F 15.8 °F 86% 29.51 in 7.0 mi SSW 13.8 mph 20.7 mph N/A   Overcast
10:52 AM 19.4 °F 5.0 °F 15.8 °F 86% 29.51 in 7.0 mi SSW 16.1 mph 21.9 mph N/A   Overcast
11:11 AM 17.6 °F 4.3 °F 15.8 °F 93% 29.52 in 7.0 mi SW 12.7 mph 19.6 mph N/A   Overcast
11:31 AM 17.6 °F 5.0 °F 12.2 °F 79% 29.53 in 7.0 mi SW 11.5 mph 19.6 mph N/A   Overcast
11:53 AM 17.6 °F 7.3 °F 12.2 °F 79% 29.53 in 7.0 mi SW 8.1 mph 17.3 mph N/A Snow Light Snow
12:13 PM 17.6 °F 5.0 °F 12.2 °F 79% 29.53 in 5.0 mi WSW 11.5 mph - N/A Snow Light Snow
12:32 PM 17.6 °F 5.0 °F 12.2 °F 79% 29.53 in 5.0 mi WSW 11.5 mph 19.6 mph N/A Snow Light Snow
12:53 PM 17.6 °F 5.0 °F 12.2 °F 79% 29.53 in 5.0 mi SW 11.5 mph 17.3 mph N/A Snow Light Snow
1:13 PM 17.6 °F 5.7 °F 12.2 °F 79% 29.54 in 4.0 mi WSW 10.4 mph 16.1 mph N/A Snow Light Snow
1:32 PM 17.6 °F 5.7 °F 12.2 °F 79% 29.54 in 4.0 mi SW 10.4 mph 17.3 mph N/A Snow Light Snow
1:52 PM 17.6 °F 9.3 °F 10.4 °F 73% 29.55 in 3.0 mi West 5.8 mph 16.1 mph N/A Snow Light Snow
2:12 PM 17.6 °F 4.3 °F 12.2 °F 79% 29.54 in 3.0 mi WSW 12.7 mph 19.6 mph N/A Snow Light Snow
2:32 PM 19.4 °F 7.2 °F 12.2 °F 74% 29.54 in 3.0 mi WSW 11.5 mph 17.3 mph N/A Snow Light Snow
2:53 PM 19.4 °F 7.9 °F 12.2 °F 74% 29.55 in 2.0 mi West 10.4 mph 19.6 mph N/A Snow Light Snow
3:13 PM 19.4 °F 5.0 °F 12.2 °F 74% 29.55 in 3.0 mi West 16.1 mph 21.9 mph N/A Snow Light Snow
3:33 PM 19.4 °F 5.0 °F 12.2 °F 74% 29.55 in 5.0 mi West 16.1 mph 23.0 mph N/A Snow Light Snow
3:53 PM 19.4 °F 8.6 °F 12.2 °F 74% 29.56 in 5.0 mi West 9.2 mph 23.0 mph N/A Snow Light Snow
4:13 PM 19.4 °F 5.5 °F 12.2 °F 74% 29.57 in 4.0 mi WNW 15.0 mph 24.2 mph N/A Snow Light Snow
4:32 PM 19.4 °F 8.6 °F 12.2 °F 74% 29.58 in 7.0 mi West 9.2 mph 18.4 mph N/A Snow Light Snow
4:53 PM 19.4 °F 7.2 °F 10.4 °F 68% 29.59 in 10.0 mi WNW 11.5 mph 18.4 mph N/A Snow Light Snow
5:13 PM 19.4 °F 7.2 °F 12.2 °F 74% 29.60 in 10.0 mi WNW 11.5 mph 18.4 mph N/A Snow Light Snow
5:31 PM 19.4 °F 8.6 °F 12.2 °F 74% 29.61 in 4.0 mi WNW 9.2 mph 18.4 mph N/A Snow Light Snow
5:53 PM 19.4 °F 7.9 °F 10.4 °F 68% 29.62 in 4.0 mi WNW 10.4 mph 24.2 mph N/A Snow Light Snow
6:12 PM 19.4 °F 6.6 °F 10.4 °F 68% 29.63 in 7.0 mi West 12.7 mph 21.9 mph N/A   Overcast
6:33 PM 17.6 °F 8.2 °F 10.4 °F 73% 29.65 in 5.0 mi WNW 6.9 mph 18.4 mph N/A Snow Light Snow
6:53 PM 15.8 °F 0.3 °F 8.6 °F 73% 29.66 in 7.0 mi NW 16.1 mph 25.3 mph N/A   Overcast
7:13 PM 15.8 °F 1.4 °F 6.8 °F 68% 29.68 in 10.0 mi NW 13.8 mph 20.7 mph N/A   Overcast
7:33 PM 14.0 °F -2.0 °F 6.8 °F 73% 29.69 in 10.0 mi WNW 16.1 mph 23.0 mph N/A   Overcast
7:52 PM 12.2 °F -2.5 °F 5.0 °F 73% 29.70 in 10.0 mi WNW 12.7 mph 20.7 mph N/A   Overcast
8:12 PM 12.2 °F -1.8 °F 6.8 °F 79% 29.71 in 7.0 mi WNW 11.5 mph 21.9 mph N/A Snow Light Snow
8:33 PM 12.2 °F -3.1 °F 5.0 °F 73% 29.73 in 10.0 mi WNW 13.8 mph 20.7 mph N/A   Overcast
8:52 PM 10.4 °F -5.4 °F 3.2 °F 73% 29.74 in 10.0 mi WNW 13.8 mph 25.3 mph N/A   Overcast
9:13 PM 10.4 °F -6.0 °F 3.2 °F 73% 29.74 in 7.0 mi WNW 15.0 mph 21.9 mph N/A   Overcast
9:33 PM 10.4 °F -5.4 °F 3.2 °F 73% 29.75 in 10.0 mi WNW 13.8 mph 23.0 mph N/A   Overcast
9:52 PM 10.4 °F -3.3 °F 3.2 °F 73% 29.76 in 10.0 mi WNW 10.4 mph 17.3 mph N/A   Overcast
10:13 PM 10.4 °F -2.4 °F 3.2 °F 73% 29.77 in 10.0 mi WNW 9.2 mph 20.7 mph N/A   Overcast
10:33 PM 8.6 °F -4.7 °F 3.2 °F 79% 29.78 in 10.0 mi WNW 9.2 mph 17.3 mph N/A   Mostly Cloudy
10:52 PM 8.6 °F -5.5 °F 1.4 °F 73% 29.78 in 10.0 mi WNW 10.4 mph 18.4 mph N/A   Scattered Clouds
11:13 PM 8.6 °F -5.5 °F 1.4 °F 73% 29.79 in 10.0 mi WNW 10.4 mph 17.3 mph N/A   Mostly Cloudy
11:31 PM 8.6 °F -3.7 °F 1.4 °F 73% 29.80 in 10.0 mi WNW 8.1 mph 18.4 mph N/A   Overcast